Find Starlink 31704

NORAD ID: 59586 Int'l Des: 2024-076 Owner: SPXS Country: US Constellation: starlink operational
LEOCIRCULAR

实时位置

正在加载3D地球...

关于 Starlink 31704

正在加载描述...

即将过境

Passes for default location (London). Set your location on the main map for personalized predictions.

高度历史

Loading altitude history...

两行轨道根数

1 59586U 24076Y 26133.50469829 .00066560 00000-0 14858-2 0 9991
2 59586 42.9951 313.3186 0018790 293.6697 66.2188 15.42489586116974
Epoch: May 13, 2026 • Age: 25 hours

当前状态

高度 453.1 km
速度 7.64 km/s
星下点 42.77°N, 26.66°W
发射日期 Apr 23, 2024
运行时间 2 years
类型 internet

技术详情

分类 Payload
质量 730.00 kg
干质量 700.00 kg
总质量 730.00 kg
长度 0.30 m
直径 4.10 m
跨度 29.00 m
形状 Box + pan
制造商 SPXS
平台类型 Starlink V2M
阶段状态 In Orbit
所有者/国家 SPXS/US

Most Searched